Weather History for Carlsbad, NM

Change the Weather History Date:

Monday, December 31, 2012

  Actual Average Record
Temperature  
Mean Temperature 41 °F -  
Max Temperature 54 °F 52 °F 77 °F (2011)
Min Temperature 28 °F 27 °F 13 °F (1969)
Degree Days  
Heating Degree Days 24    
Moisture  
Dew Point 28 °F    
Average Humidity 72    
Maximum Humidity 100    
Minimum Humidity 30    
Precipitation  
Precipitation 0.09 in - - ()
Sea Level Pressure  
Sea Level Pressure 29.94 in    
Wind  
Wind Speed 8 mph (SSW)    
Max Wind Speed 32 mph    
Max Gust Speed 43 mph    
Visibility 7 miles    
Events Fog , Rain    
Averages and records for this station are not official NWS values.
T = Trace of Precipitation, MM = Missing Value Source: NWS Daily Summary

Daily Weather History Graph

Daily Weather History Graph

Search for Another Location

Airport:

Trip Planner

Search our weather history database for the weather conditions in past years. The results will help you decide how hot, cold, wet, or windy it might be!

Date:

Astronomy

Dec. 31, 2012 Rise Set
Actual Time 6:58 AM MST 5:02 PM MST
Civil Twilight 6:31 AM MST 5:29 PM MST
Nautical Twilight 6:00 AM MST 6:00 PM MST
Astronomical Twilight 5:30 AM MST 6:30 PM MST
Moon 8:22 PM MST (12/31) 8:52 AM MST (12/31)
Length of Visible Light 10h 58m
Length of Day
10h 04m
Waning Gibbous, 90% of the Moon is Illuminated
Dec 31
Waning Gibbous
Jan 4
Last Quarter
Jan 11
New
Jan 18
First Quarter
Jan 26
Full

Hourly Weather History & Observations

Time (MST) Temp. Windchill Dew Point Humidity Pressure Visibility Wind Dir Wind Speed Gust Speed Precip Events Conditions
12:08 AM 33.8 °F 26.4 °F 32.0 °F 93% 29.94 in 7.0 mi SSE 9.2 mph - N/A   Overcast
12:53 AM 34.0 °F 28.0 °F 33.1 °F 96% 29.90 in 4.0 mi SSE 6.9 mph - 0.08 in Rain Light Rain
1:09 AM 33.8 °F 28.6 °F 32.0 °F 93% 29.90 in 6.0 mi South 5.8 mph - 0.01 in   Overcast
1:17 AM 33.8 °F 28.6 °F 32.0 °F 93% 29.92 in 7.0 mi South 5.8 mph - 0.01 in   Overcast
1:23 AM 33.8 °F 25.8 °F 32.0 °F 93% 29.95 in 8.0 mi West 10.4 mph - 0.01 in   Overcast
1:53 AM 34.0 °F - 30.9 °F 89% 29.92 in 9.0 mi Calm Calm - 0.01 in   Overcast
2:01 AM 33.8 °F - 32.0 °F 93% 29.93 in 9.0 mi Calm Calm - N/A   Overcast
2:08 AM 33.8 °F 29.6 °F 32.0 °F 93% 29.92 in 8.0 mi SE 4.6 mph - N/A   Overcast
2:53 AM 33.1 °F 28.7 °F 30.9 °F 92% 29.90 in 7.0 mi SSE 4.6 mph - 0.00 in   Mostly Cloudy
3:53 AM 30.9 °F 27.5 °F 28.9 °F 92% 29.89 in 5.0 mi Variable 3.5 mph - N/A   Partly Cloudy
3:59 AM 30.2 °F 26.7 °F 30.2 °F 100% 29.90 in 1.8 mi South 3.5 mph - N/A   Scattered Clouds
4:02 AM 30.2 °F 26.7 °F 30.2 °F 100% 29.90 in 0.8 mi South 3.5 mph - N/A   Mist
4:13 AM 30.2 °F 25.4 °F 30.2 °F 100% 29.91 in 0.2 mi South 4.6 mph - N/A Fog Light Freezing Fog
4:53 AM 30.9 °F 26.2 °F 30.0 °F 96% 29.90 in 0.2 mi SE 4.6 mph - N/A Fog Light Freezing Fog
5:34 AM 28.4 °F 23.3 °F 28.4 °F 100% 29.92 in 0.5 mi ESE 4.6 mph - N/A Fog Light Freezing Fog
5:43 AM 28.4 °F 21.2 °F 28.4 °F 100% 29.93 in 2.0 mi ESE 6.9 mph - N/A   Mostly Cloudy
5:48 AM 28.4 °F 21.2 °F 28.4 °F 100% 29.94 in 4.0 mi ESE 6.9 mph - N/A   Scattered Clouds
5:53 AM 28.9 °F 21.9 °F 28.0 °F 96% 29.93 in 6.0 mi ESE 6.9 mph - N/A   Scattered Clouds
6:53 AM 30.0 °F - 28.9 °F 96% 29.95 in 10.0 mi Calm Calm - N/A   Clear
7:53 AM 39.0 °F - 32.0 °F 76% 29.95 in 10.0 mi Calm Calm - N/A   Clear
8:53 AM 46.9 °F - 30.9 °F 54% 29.96 in 10.0 mi SW 13.8 mph - N/A   Clear
9:53 AM 50.0 °F - 28.0 °F 43% 29.95 in 10.0 mi SW 24.2 mph 29.9 mph N/A   Clear
10:53 AM 51.1 °F - 27.0 °F 39% 29.94 in 10.0 mi WSW 32.2 mph 42.6 mph N/A   Clear
11:53 AM 53.1 °F - 28.0 °F 38% 29.92 in 10.0 mi WSW 21.9 mph 32.2 mph N/A   Clear
12:53 PM 53.1 °F - 27.0 °F 37% 29.90 in 10.0 mi WSW 24.2 mph 33.4 mph N/A   Clear
1:53 PM 54.0 °F - 25.0 °F 33% 29.90 in 10.0 mi WSW 24.2 mph 31.1 mph N/A   Clear
2:53 PM 54.0 °F - 23.0 °F 30% 29.91 in 10.0 mi West 23.0 mph 31.1 mph N/A   Clear
3:53 PM 52.0 °F - 23.0 °F 32% 29.93 in 10.0 mi WSW 17.3 mph 24.2 mph N/A   Clear
4:53 PM 48.9 °F - 24.1 °F 38% 29.96 in 10.0 mi West 10.4 mph - N/A   Clear
5:53 PM 46.9 °F - 25.0 °F 42% 29.99 in 10.0 mi WSW 6.9 mph - N/A   Overcast
6:53 PM 46.0 °F 41.9 °F 26.1 °F 46% 29.99 in 10.0 mi West 8.1 mph - N/A   Overcast
7:53 PM 44.1 °F 41.5 °F 27.0 °F 51% 29.99 in 10.0 mi South 4.6 mph - N/A   Partly Cloudy
8:53 PM 44.6 °F 40.7 °F 24.8 °F 46% 30.03 in 10.0 mi West 6.9 mph - N/A   Scattered Clouds
9:53 PM 44.1 °F 39.5 °F 25.0 °F 47% 29.99 in 10.0 mi West 8.1 mph - N/A   Mostly Cloudy
10:53 PM 39.9 °F 33.9 °F 25.0 °F 55% 30.00 in 10.0 mi WNW 9.2 mph - N/A   Clear
11:53 PM 41.0 °F 32.5 °F 25.0 °F 53% 29.99 in 10.0 mi WSW 17.3 mph - N/A   Clear